Time,TemperatureF,DewpointF,PressureIn,WindDirection,WindDirectionDegrees,WindSpeedMPH,WindSpeedGustMPH,Humidity,HourlyPrecipIn,Conditions,Clouds,dailyrainin,SoftwareType,DateUTC
2013-01-09 00:04:00,60.4,49.8,29.56,NE,45,6.8,9.2,68,0.00,CLR,OVC,0.00,WeatherDisplay:10.37,2013-01-08 11:04:00,
2013-01-09 00:09:00,60.4,50.2,29.55,ENE,68,8.6,12.7,69,0.00,CLR,OVC,0.00,WeatherDisplay:10.37,2013-01-08 11:09:00,
2013-01-09 00:14:00,60.4,50.2,29.55,ENE,68,5.7,10.4,69,0.00,CLR,OVC,0.00,WeatherDisplay:10.37,2013-01-08 11:14:00,
2013-01-09 00:19:00,60.4,50.2,29.55,ESE,112,5.3,5.8,69,0.00,CLR,OVC,0.00,WeatherDisplay:10.37,2013-01-08 11:19:00,
2013-01-09 00:24:00,60.4,50.2,29.56,ESE,112,1.3,4.6,69,0.00,CLR,OVC,0.00,WeatherDisplay:10.37,2013-01-08 11:24:00,
2013-01-09 00:29:00,60.4,49.8,29.55,NE,45,1.3,3.6,68,0.00,CLR,OVC,0.00,WeatherDisplay:10.37,2013-01-08 11:29:00,
2013-01-09 00:34:00,60.4,49.8,29.55,East,90,1.5,3.5,68,0.00,CLR,OVC,0.00,WeatherDisplay:10.37,2013-01-08 11:34:00,
2013-01-09 00:39:00,60.4,49.4,29.55,East,90,1.8,5.1,67,0.00,CLR,OVC,0.00,WeatherDisplay:10.37,2013-01-08 11:39:00,
2013-01-09 00:44:00,60.4,49.4,29.55,East,90,3.5,5.8,67,0.00,CLR,OVC,0.00,WeatherDisplay:10.37,2013-01-08 11:44:00,
2013-01-09 00:49:00,60.4,49.0,29.54,East,90,0.5,3.5,66,0.00,CLR,OVC,0.00,WeatherDisplay:10.37,2013-01-08 11:49:00,
2013-01-09 00:54:00,60.4,49.0,29.55,East,90,2.5,3.5,66,0.00,CLR,OVC,0.00,WeatherDisplay:10.37,2013-01-08 11:54:00,
2013-01-09 00:59:00,60.4,48.6,29.54,ENE,68,2.9,4.6,65,0.00,CLR,OVC,0.00,WeatherDisplay:10.37,2013-01-08 11:59:00,
2013-01-09 01:04:00,60.3,48.4,29.54,East,90,0.7,3.5,65,0.00,CLR,OVC,0.00,WeatherDisplay:10.37,2013-01-08 12:04:00,
2013-01-09 01:09:00,60.1,47.9,29.55,ENE,68,2.5,3.5,64,0.00,CLR,OVC,0.00,WeatherDisplay:10.37,2013-01-08 12:09:00,
2013-01-09 01:14:00,60.1,47.9,29.54,ENE,68,0.0,0.0,64,0.00,CLR,OVC,0.00,WeatherDisplay:10.37,2013-01-08 12:14:00,
2013-01-09 01:19:00,60.1,47.4,29.54,East,90,0.0,2.7,63,0.00,CLR,OVC,0.00,WeatherDisplay:10.37,2013-01-08 12:19:00,
2013-01-09 01:24:00,60.1,47.4,29.55,East,90,0.0,0.0,63,0.00,CLR,OVC,0.00,WeatherDisplay:10.37,2013-01-08 12:24:00,
2013-01-09 01:29:00,59.9,46.8,29.54,East,90,0.6,0.0,62,0.00,CLR,OVC,0.00,WeatherDisplay:10.37,2013-01-08 12:29:00,
2013-01-09 01:34:00,59.9,46.8,29.54,ENE,68,0.0,0.0,62,0.00,CLR,OVC,0.00,WeatherDisplay:10.37,2013-01-08 12:34:00,
2013-01-09 01:39:00,59.7,46.7,29.53,ENE,68,0.6,2.3,62,0.00,CLR,OVC,0.00,WeatherDisplay:10.37,2013-01-08 12:39:00,
2013-01-09 01:44:00,59.7,46.2,29.53,East,90,2.8,5.8,61,0.00,CLR,OVC,0.00,WeatherDisplay:10.37,2013-01-08 12:44:00,
2013-01-09 01:49:00,59.7,45.8,29.53,ENE,68,1.3,4.6,60,0.00,CLR,OVC,0.00,WeatherDisplay:10.37,2013-01-08 12:49:00,
2013-01-09 01:54:00,59.9,46.0,29.52,East,90,1.0,5.6,60,0.00,CLR,OVC,0.00,WeatherDisplay:10.37,2013-01-08 12:54:00,
2013-01-09 01:59:00,59.9,46.0,29.52,ENE,68,0.5,4.6,60,0.00,CLR,OVC,0.00,WeatherDisplay:10.37,2013-01-08 12:59:00,
2013-01-09 02:04:00,59.9,46.0,29.52,East,90,2.1,4.6,60,0.00,CLR,OVC,0.00,WeatherDisplay:10.37,2013-01-08 13:04:00,
2013-01-09 02:09:00,60.1,46.1,29.52,ENE,68,2.8,4.0,60,0.00,CLR,OVC,0.00,WeatherDisplay:10.37,2013-01-08 13:09:00,
2013-01-09 02:14:00,60.1,46.1,29.51,NNE,22,6.1,8.1,60,0.00,CLR,OVC,0.00,WeatherDisplay:10.37,2013-01-08 13:14:00,
2013-01-09 02:19:00,59.9,46.0,29.51,East,90,2.4,6.9,60,0.00,CLR,OVC,0.00,WeatherDisplay:10.37,2013-01-08 13:19:00,
2013-01-09 02:24:00,59.9,46.0,29.52,ENE,68,2.0,3.5,60,0.00,CLR,OVC,0.00,WeatherDisplay:10.37,2013-01-08 13:24:00,
2013-01-09 02:29:00,59.9,46.0,29.52,NE,45,4.4,4.4,60,0.00,CLR,OVC,0.00,WeatherDisplay:10.37,2013-01-08 13:29:00,
2013-01-09 02:34:00,59.9,46.0,29.52,ENE,68,1.2,4.6,60,0.00,CLR,OVC,0.00,WeatherDisplay:10.37,2013-01-08 13:34:00,
2013-01-09 02:39:00,59.9,46.0,29.52,NE,45,1.3,3.5,60,0.00,CLR,OVC,0.00,WeatherDisplay:10.37,2013-01-08 13:39:00,
2013-01-09 02:44:00,59.9,46.0,29.51,ESE,112,2.2,4.6,60,0.00,CLR,OVC,0.00,WeatherDisplay:10.37,2013-01-08 13:44:00,
2013-01-09 02:49:00,59.9,46.0,29.51,ENE,68,3.5,4.6,60,0.00,CLR,OVC,0.00,WeatherDisplay:10.37,2013-01-08 13:49:00,
2013-01-09 02:54:00,59.9,46.4,29.51,ENE,68,3.6,5.8,61,0.00,CLR,OVC,0.00,WeatherDisplay:10.37,2013-01-08 13:54:00,
2013-01-09 02:59:00,59.9,46.4,29.51,ENE,68,1.3,4.6,61,0.00,CLR,OVC,0.00,WeatherDisplay:10.37,2013-01-08 13:59:00,
2013-01-09 03:04:00,59.7,46.2,29.51,ESE,112,3.9,5.8,61,0.00,CLR,OVC,0.00,WeatherDisplay:10.37,2013-01-08 14:04:00,
2013-01-09 03:09:00,59.7,46.2,29.50,East,90,3.2,6.9,61,0.00,CLR,OVC,0.00,WeatherDisplay:10.37,2013-01-08 14:09:00,
2013-01-09 03:14:00,59.7,46.2,29.50,ENE,68,2.6,7.2,61,0.00,CLR,OVC,0.00,WeatherDisplay:10.37,2013-01-08 14:14:00,
2013-01-09 03:19:00,59.7,46.2,29.50,ENE,68,1.6,4.9,61,0.00,CLR,OVC,0.00,WeatherDisplay:10.37,2013-01-08 14:19:00,
2013-01-09 03:24:00,59.7,46.2,29.50,ENE,68,6.2,9.2,61,0.00,CLR,OVC,0.00,WeatherDisplay:10.37,2013-01-08 14:24:00,
2013-01-09 03:29:00,59.9,46.0,29.50,ENE,68,5.5,8.1,60,0.00,CLR,OVC,0.00,WeatherDisplay:10.37,2013-01-08 14:29:00,
2013-01-09 03:34:00,60.1,46.1,29.48,East,90,4.0,6.9,60,0.00,CLR,OVC,0.00,WeatherDisplay:10.37,2013-01-08 14:34:00,
2013-01-09 03:39:00,60.1,46.1,29.48,East,90,2.8,8.1,60,0.00,CLR,OVC,0.00,WeatherDisplay:10.37,2013-01-08 14:39:00,
2013-01-09 03:44:00,60.3,46.3,29.48,East,90,5.6,8.1,60,0.00,CLR,OVC,0.00,WeatherDisplay:10.37,2013-01-08 14:44:00,
2013-01-09 03:49:00,60.4,46.5,29.48,ENE,68,6.5,9.2,60,0.00,CLR,OVC,0.00,WeatherDisplay:10.37,2013-01-08 14:49:00,
2013-01-09 03:54:00,60.4,46.5,29.48,East,90,4.5,8.3,60,0.00,CLR,OVC,0.00,WeatherDisplay:10.37,2013-01-08 14:54:00,
2013-01-09 03:59:00,60.4,46.9,29.48,ENE,68,5.0,6.9,61,0.00,CLR,OVC,0.00,WeatherDisplay:10.37,2013-01-08 14:59:00,
2013-01-09 04:04:00,60.4,46.5,29.48,ESE,112,5.5,9.2,60,0.00,CLR,OVC,0.00,WeatherDisplay:10.37,2013-01-08 15:04:00,
2013-01-09 04:09:00,60.4,46.5,29.48,ENE,68,5.2,6.9,60,0.00,CLR,OVC,0.00,WeatherDisplay:10.37,2013-01-08 15:09:00,
2013-01-09 04:14:00,60.4,46.5,29.48,ENE,68,4.5,5.8,60,0.00,CLR,OVC,0.00,WeatherDisplay:10.37,2013-01-08 15:14:00,
2013-01-09 04:19:00,60.4,46.5,29.48,East,90,3.1,5.8,60,0.00,CLR,OVC,0.00,WeatherDisplay:10.37,2013-01-08 15:19:00,
2013-01-09 04:24:00,60.3,46.3,29.48,ENE,68,3.9,6.9,60,0.00,CLR,OVC,0.00,WeatherDisplay:10.37,2013-01-08 15:24:00,
2013-01-09 04:29:00,60.1,46.1,29.48,ENE,68,4.2,6.9,60,0.00,CLR,OVC,0.00,WeatherDisplay:10.37,2013-01-08 15:29:00,
2013-01-09 04:34:00,60.1,45.7,29.48,NE,45,4.0,4.6,59,0.00,CLR,OVC,0.00,WeatherDisplay:10.37,2013-01-08 15:34:00,
2013-01-09 04:39:00,60.1,45.2,29.49,ENE,68,3.9,5.8,58,0.00,CLR,OVC,0.00,WeatherDisplay:10.37,2013-01-08 15:39:00,
2013-01-09 04:44:00,60.1,45.2,29.49,ENE,68,3.9,5.8,58,0.00,CLR,OVC,0.00,WeatherDisplay:10.37,2013-01-08 15:44:00,
2013-01-09 04:49:00,60.1,45.2,29.50,East,90,2.1,4.6,58,0.00,CLR,OVC,0.00,WeatherDisplay:10.37,2013-01-08 15:49:00,
2013-01-09 04:54:00,60.1,44.8,29.49,ENE,68,2.2,4.6,57,0.00,CLR,OVC,0.00,WeatherDisplay:10.37,2013-01-08 15:54:00,
2013-01-09 04:59:00,60.1,44.8,29.50,ENE,68,4.8,6.9,57,0.00,CLR,OVC,0.00,WeatherDisplay:10.37,2013-01-08 15:59:00,
2013-01-09 05:04:00,59.9,44.2,29.49,ENE,68,4.0,5.8,56,0.00,CLR,OVC,0.00,WeatherDisplay:10.37,2013-01-08 16:04:00,
2013-01-09 05:09:00,59.9,44.2,29.49,ENE,68,2.3,5.8,56,0.00,CLR,OVC,0.00,WeatherDisplay:10.37,2013-01-08 16:09:00,
2013-01-09 05:14:00,60.1,44.3,29.50,ENE,68,1.1,3.5,56,0.00,CLR,OVC,0.00,WeatherDisplay:10.37,2013-01-08 16:14:00,
2013-01-09 05:19:00,60.1,44.3,29.50,ENE,68,0.6,3.5,56,0.00,CLR,OVC,0.00,WeatherDisplay:10.37,2013-01-08 16:19:00,
2013-01-09 05:24:00,59.9,43.7,29.49,East,90,3.3,4.6,55,0.00,CLR,OVC,0.00,WeatherDisplay:10.37,2013-01-08 16:24:00,
2013-01-09 05:29:00,59.9,44.2,29.49,ENE,68,3.2,5.8,56,0.00,CLR,OVC,0.00,WeatherDisplay:10.37,2013-01-08 16:29:00,
2013-01-09 05:34:00,59.9,43.7,29.48,NE,45,2.0,4.6,55,0.00,CLR,OVC,0.00,WeatherDisplay:10.37,2013-01-08 16:34:00,
2013-01-09 05:39:00,59.9,43.7,29.49,NNE,22,1.8,3.8,55,0.00,CLR,OVC,0.00,WeatherDisplay:10.37,2013-01-08 16:39:00,
2013-01-09 05:44:00,59.9,43.7,29.49,ENE,68,3.2,5.8,55,0.00,CLR,OVC,0.00,WeatherDisplay:10.37,2013-01-08 16:44:00,
2013-01-09 05:49:00,59.7,43.5,29.49,NE,45,3.5,4.6,55,0.00,CLR,OVC,0.00,WeatherDisplay:10.37,2013-01-08 16:49:00,
2013-01-09 05:54:00,59.7,43.5,29.49,NNE,22,1.2,4.0,55,0.00,CLR,OVC,0.00,WeatherDisplay:10.37,2013-01-08 16:54:00,
2013-01-09 05:59:00,59.5,43.3,29.49,NE,45,1.9,4.6,55,0.00,CLR,OVC,0.00,WeatherDisplay:10.37,2013-01-08 16:59:00,
2013-01-09 06:04:00,59.5,43.3,29.48,NE,45,3.1,5.8,55,0.00,CLR,OVC,0.00,WeatherDisplay:10.37,2013-01-08 17:04:00,
2013-01-09 06:09:00,59.7,43.5,29.48,NW,315,0.8,4.6,55,0.00,CLR,OVC,0.00,WeatherDisplay:10.37,2013-01-08 17:09:00,
2013-01-09 06:14:00,60.1,44.3,29.48,WNW,292,5.4,8.1,56,0.00,CLR,OVC,0.00,WeatherDisplay:10.37,2013-01-08 17:14:00,
2013-01-09 06:19:00,60.6,44.8,29.48,NNW,338,4.2,10.4,56,0.00,CLR,OVC,0.00,WeatherDisplay:10.37,2013-01-08 17:19:00,
2013-01-09 06:24:00,61.3,45.5,29.49,ENE,68,1.3,5.8,56,0.00,CLR,OVC,0.00,WeatherDisplay:10.37,2013-01-08 17:24:00,
2013-01-09 06:29:00,61.9,45.5,29.49,NNW,338,10.5,17.3,55,0.00,CLR,OVC,0.00,WeatherDisplay:10.37,2013-01-08 17:29:00,
2013-01-09 06:34:00,62.4,46.0,29.49,NW,315,5.1,8.1,55,0.00,CLR,OVC,0.00,WeatherDisplay:10.37,2013-01-08 17:34:00,
2013-01-09 06:39:00,63.0,46.0,29.49,North,0,1.7,3.5,54,0.00,CLR,OVC,0.00,WeatherDisplay:10.37,2013-01-08 17:39:00,
2013-01-09 06:44:00,63.1,46.2,29.49,North,0,2.9,5.8,54,0.00,CLR,OVC,0.00,WeatherDisplay:10.37,2013-01-08 17:44:00,
2013-01-09 06:49:00,63.3,46.4,29.49,NNE,22,1.0,2.3,54,0.00,CLR,OVC,0.00,WeatherDisplay:10.37,2013-01-08 17:49:00,
2013-01-09 06:54:00,63.5,46.6,29.49,NNE,22,0.3,2.3,54,0.00,CLR,OVC,0.00,WeatherDisplay:10.37,2013-01-08 17:54:00,
2013-01-09 06:59:00,63.3,46.4,29.49,NE,45,0.0,2.2,54,0.00,CLR,OVC,0.00,WeatherDisplay:10.37,2013-01-08 17:59:00,
2013-01-09 07:04:00,63.1,46.2,29.48,ENE,68,3.5,4.6,54,0.00,CLR,OVC,0.00,WeatherDisplay:10.37,2013-01-08 18:04:00,
2013-01-09 07:09:00,63.1,46.2,29.48,East,90,2.4,5.8,54,0.00,CLR,OVC,0.00,WeatherDisplay:10.37,2013-01-08 18:09:00,
2013-01-09 07:14:00,63.0,46.0,29.48,ENE,68,2.3,5.8,54,0.00,CLR,OVC,0.00,WeatherDisplay:10.37,2013-01-08 18:14:00,
2013-01-09 07:19:00,62.8,46.4,29.48,ENE,68,2.1,4.6,55,0.00,CLR,OVC,0.00,WeatherDisplay:10.37,2013-01-08 18:19:00,
2013-01-09 07:24:00,62.8,46.4,29.48,East,90,2.6,4.6,55,0.00,CLR,OVC,0.00,WeatherDisplay:10.37,2013-01-08 18:24:00,
2013-01-09 07:29:00,62.8,46.4,29.48,NNE,22,1.0,2.3,55,0.00,CLR,OVC,0.00,WeatherDisplay:10.37,2013-01-08 18:29:00,
2013-01-09 07:34:00,62.8,46.4,29.47,ENE,68,1.8,3.5,55,0.00,CLR,OVC,0.00,WeatherDisplay:10.37,2013-01-08 18:34:00,
2013-01-09 07:39:00,62.6,46.2,29.47,NNE,22,0.3,2.3,55,0.00,CLR,OVC,0.00,WeatherDisplay:10.37,2013-01-08 18:39:00,
2013-01-09 07:44:00,62.4,46.0,29.46,NNE,22,2.0,4.6,55,0.00,CLR,OVC,0.00,WeatherDisplay:10.37,2013-01-08 18:44:00,
2013-01-09 07:49:00,62.4,46.5,29.46,NE,45,1.1,2.3,56,0.00,CLR,OVC,0.00,WeatherDisplay:10.37,2013-01-08 18:49:00,
2013-01-09 07:54:00,62.8,46.8,29.46,ENE,68,3.0,4.6,56,0.00,CLR,OVC,0.00,WeatherDisplay:10.37,2013-01-08 18:54:00,
2013-01-09 07:59:00,62.8,46.8,29.46,ENE,68,5.1,8.1,56,0.00,CLR,OVC,0.00,WeatherDisplay:10.37,2013-01-08 18:59:00,
2013-01-09 08:04:00,63.0,47.0,29.46,ENE,68,4.4,4.6,56,0.00,CLR,OVC,0.00,WeatherDisplay:10.37,2013-01-08 19:04:00,
2013-01-09 08:09:00,63.0,47.0,29.46,ENE,68,1.8,5.8,56,0.00,CLR,OVC,0.00,WeatherDisplay:10.37,2013-01-08 19:09:00,
2013-01-09 08:14:00,63.1,47.2,29.46,NNE,22,1.9,4.6,56,0.00,CLR,OVC,0.00,WeatherDisplay:10.37,2013-01-08 19:14:00,
2013-01-09 08:19:00,63.1,47.2,29.46,ENE,68,3.0,8.1,56,0.00,CLR,OVC,0.00,WeatherDisplay:10.37,2013-01-08 19:19:00,
2013-01-09 08:24:00,63.5,47.5,29.45,NE,45,7.8,11.5,56,0.00,CLR,OVC,0.00,WeatherDisplay:10.37,2013-01-08 19:24:00,
2013-01-09 08:29:00,64.0,48.0,29.45,NE,45,4.7,9.2,56,0.00,CLR,OVC,0.00,WeatherDisplay:10.37,2013-01-08 19:29:00,
2013-01-09 08:34:00,64.2,48.2,29.44,NE,45,5.8,8.1,56,0.00,CLR,OVC,0.00,WeatherDisplay:10.37,2013-01-08 19:34:00,
2013-01-09 08:39:00,64.2,48.2,29.44,NE,45,5.5,9.2,56,0.00,CLR,OVC,0.00,WeatherDisplay:10.37,2013-01-08 19:39:00,
2013-01-09 08:44:00,64.2,47.7,29.45,NE,45,8.7,12.7,55,0.00,CLR,OVC,0.00,WeatherDisplay:10.37,2013-01-08 19:44:00,
2013-01-09 08:49:00,64.6,48.0,29.44,ENE,68,8.1,12.7,55,0.00,CLR,OVC,0.00,WeatherDisplay:10.37,2013-01-08 19:49:00,
2013-01-09 08:54:00,64.9,48.4,29.45,NE,45,9.5,12.7,55,0.00,CLR,OVC,0.00,WeatherDisplay:10.37,2013-01-08 19:54:00,
2013-01-09 08:59:00,65.1,48.5,29.44,ENE,68,6.1,9.2,55,0.00,CLR,OVC,0.00,WeatherDisplay:10.37,2013-01-08 19:59:00,
2013-01-09 09:04:00,65.1,49.0,29.45,NE,45,1.9,6.9,56,0.00,CLR,OVC,0.00,WeatherDisplay:10.37,2013-01-08 20:04:00,
2013-01-09 09:09:00,65.1,49.0,29.45,NNE,22,4.5,10.4,56,0.00,CLR,OVC,0.00,WeatherDisplay:10.37,2013-01-08 20:09:00,
2013-01-09 09:14:00,65.1,49.0,29.45,NE,45,3.0,5.8,56,0.00,CLR,OVC,0.00,WeatherDisplay:10.37,2013-01-08 20:14:00,
2013-01-09 09:19:00,65.1,49.5,29.44,NNE,22,6.8,10.4,57,0.00,CLR,OVC,0.00,WeatherDisplay:10.37,2013-01-08 20:19:00,
2013-01-09 09:24:00,65.3,49.7,29.44,East,90,4.6,8.1,57,0.00,CLR,OVC,0.00,WeatherDisplay:10.37,2013-01-08 20:24:00,
2013-01-09 09:29:00,65.8,50.2,29.44,NE,45,10.3,19.6,57,0.00,CLR,OVC,0.00,WeatherDisplay:10.37,2013-01-08 20:29:00,
2013-01-09 09:34:00,66.0,49.9,29.43,NE,45,3.2,6.9,56,0.00,CLR,OVC,0.00,WeatherDisplay:10.37,2013-01-08 20:34:00,
2013-01-09 09:39:00,66.4,50.2,29.43,ENE,68,9.8,13.8,56,0.00,CLR,OVC,0.00,WeatherDisplay:10.37,2013-01-08 20:39:00,
2013-01-09 09:44:00,67.1,50.9,29.43,NE,45,8.6,12.7,56,0.00,CLR,OVC,0.00,WeatherDisplay:10.37,2013-01-08 20:44:00,
2013-01-09 09:49:00,68.4,51.6,29.43,ENE,68,6.6,12.7,55,0.00,CLR,OVC,0.00,WeatherDisplay:10.37,2013-01-08 20:49:00,
2013-01-09 09:54:00,69.8,52.4,29.42,ENE,68,8.3,19.6,54,0.00,CLR,OVC,0.00,WeatherDisplay:10.37,2013-01-08 20:54:00,
2013-01-09 09:59:00,71.2,53.2,29.41,ENE,68,14.3,19.6,53,0.00,CLR,OVC,0.00,WeatherDisplay:10.37,2013-01-08 20:59:00,
2013-01-09 10:04:00,72.0,52.8,29.41,NE,45,9.4,21.9,51,0.00,CLR,OVC,0.00,WeatherDisplay:10.37,2013-01-08 21:04:00,
2013-01-09 10:09:00,72.3,53.2,29.42,ENE,68,12.2,15.0,51,0.00,CLR,OVC,0.00,WeatherDisplay:10.37,2013-01-08 21:09:00,
2013-01-09 10:14:00,73.2,53.5,29.42,NNE,22,12.5,19.6,50,0.00,CLR,OVC,0.00,WeatherDisplay:10.37,2013-01-08 21:14:00,
2013-01-09 10:19:00,74.1,53.7,29.42,ENE,68,10.8,16.1,49,0.00,CLR,OVC,0.00,WeatherDisplay:10.37,2013-01-08 21:19:00,
2013-01-09 10:24:00,75.2,54.2,29.42,NE,45,14.3,20.7,48,0.00,CLR,OVC,0.00,WeatherDisplay:10.37,2013-01-08 21:24:00,
2013-01-09 10:29:00,75.7,54.1,29.42,ENE,68,8.7,17.3,47,0.00,CLR,OVC,0.00,WeatherDisplay:10.37,2013-01-08 21:29:00,
2013-01-09 10:34:00,75.9,54.2,29.41,ENE,68,6.2,15.0,47,0.00,CLR,OVC,0.00,WeatherDisplay:10.37,2013-01-08 21:34:00,
2013-01-09 10:39:00,75.7,53.5,29.42,NE,45,4.4,11.5,46,0.00,CLR,OVC,0.00,WeatherDisplay:10.37,2013-01-08 21:39:00,
2013-01-09 10:44:00,75.6,53.9,29.40,ENE,68,8.3,12.7,47,0.00,CLR,OVC,0.00,WeatherDisplay:10.37,2013-01-08 21:44:00,
2013-01-09 10:49:00,76.1,54.4,29.40,ENE,68,7.5,17.0,47,0.00,CLR,OVC,0.00,WeatherDisplay:10.37,2013-01-08 21:49:00,
2013-01-09 10:54:00,76.5,54.1,29.40,ENE,68,11.9,17.3,46,0.00,CLR,OVC,0.00,WeatherDisplay:10.37,2013-01-08 21:54:00,
2013-01-09 10:59:00,76.6,54.9,29.39,NE,45,15.2,19.6,47,0.00,CLR,OVC,0.00,WeatherDisplay:10.37,2013-01-08 21:59:00,
2013-01-09 11:04:00,76.6,54.9,29.40,ENE,68,6.0,16.3,47,0.00,CLR,OVC,0.00,WeatherDisplay:10.37,2013-01-08 22:04:00,
2013-01-09 11:09:00,76.6,54.9,29.39,ENE,68,8.0,13.8,47,0.00,CLR,OVC,0.00,WeatherDisplay:10.37,2013-01-08 22:09:00,
2013-01-09 11:14:00,76.6,54.3,29.39,NE,45,7.6,13.9,46,0.00,CLR,OVC,0.00,WeatherDisplay:10.37,2013-01-08 22:14:00,
2013-01-09 11:19:00,76.8,54.5,29.38,NE,45,11.9,18.4,46,0.00,CLR,OVC,0.00,WeatherDisplay:10.37,2013-01-08 22:19:00,
2013-01-09 11:24:00,77.7,55.3,29.38,NE,45,7.5,20.7,46,0.00,CLR,OVC,0.00,WeatherDisplay:10.37,2013-01-08 22:24:00,
2013-01-09 11:29:00,78.6,55.5,29.38,NE,45,8.4,20.6,45,0.00,CLR,OVC,0.00,WeatherDisplay:10.37,2013-01-08 22:29:00,
2013-01-09 11:34:00,79.5,55.7,29.37,ENE,68,13.8,13.8,44,0.00,CLR,OVC,0.00,WeatherDisplay:10.37,2013-01-08 22:34:00,
2013-01-09 11:39:00,80.2,56.3,29.37,ENE,68,7.8,16.1,44,0.00,CLR,OVC,0.00,WeatherDisplay:10.37,2013-01-08 22:39:00,
2013-01-09 11:44:00,81.0,56.4,29.38,NE,45,12.6,20.6,43,0.00,CLR,OVC,0.00,WeatherDisplay:10.37,2013-01-08 22:44:00,
2013-01-09 11:49:00,81.3,56.0,29.38,NE,45,12.1,15.0,42,0.00,CLR,OVC,0.00,WeatherDisplay:10.37,2013-01-08 22:49:00,
2013-01-09 11:54:00,81.7,56.4,29.38,NNE,22,15.8,23.0,42,0.00,CLR,OVC,0.00,WeatherDisplay:10.37,2013-01-08 22:54:00,
2013-01-09 11:59:00,81.7,55.7,29.37,NE,45,15.1,19.6,41,0.00,CLR,OVC,0.00,WeatherDisplay:10.37,2013-01-08 22:59:00,
2013-01-09 12:04:00,81.7,55.7,29.37,NE,45,13.5,23.0,41,0.00,CLR,OVC,0.00,WeatherDisplay:10.37,2013-01-08 23:04:00,
2013-01-09 12:09:00,81.5,55.5,29.38,NNE,22,16.8,24.2,41,0.00,CLR,OVC,0.00,WeatherDisplay:10.37,2013-01-08 23:09:00,
2013-01-09 12:14:00,81.7,55.7,29.38,NE,45,8.1,20.7,41,0.00,CLR,OVC,0.00,WeatherDisplay:10.37,2013-01-08 23:14:00,
2013-01-09 12:19:00,82.4,56.3,29.38,NE,45,19.1,23.0,41,0.00,CLR,OVC,0.00,WeatherDisplay:10.37,2013-01-08 23:19:00,
2013-01-09 12:24:00,82.8,56.0,29.38,ENE,68,4.0,11.5,40,0.00,CLR,OVC,0.00,WeatherDisplay:10.37,2013-01-08 23:24:00,
2013-01-09 12:29:00,83.3,56.5,29.39,East,90,10.4,18.4,40,0.00,CLR,OVC,0.00,WeatherDisplay:10.37,2013-01-08 23:29:00,
2013-01-09 12:34:00,83.5,55.9,29.38,NE,45,11.8,18.4,39,0.00,CLR,OVC,0.00,WeatherDisplay:10.37,2013-01-08 23:34:00,
2013-01-09 12:40:00,83.1,55.6,29.38,NE,45,11.2,15.0,39,0.00,CLR,OVC,0.00,WeatherDisplay:10.37,2013-01-08 23:40:00,
2013-01-09 12:45:00,82.8,55.3,29.38,NE,45,15.2,25.3,39,0.00,CLR,OVC,0.00,WeatherDisplay:10.37,2013-01-08 23:45:00,
2013-01-09 12:50:00,82.2,55.5,29.38,ENE,68,8.5,15.9,40,0.00,CLR,OVC,0.00,WeatherDisplay:10.37,2013-01-08 23:50:00,
2013-01-09 12:55:00,81.7,55.7,29.38,ENE,68,11.1,15.0,41,0.00,CLR,OVC,0.00,WeatherDisplay:10.37,2013-01-08 23:55:00,
2013-01-09 13:00:00,81.7,56.4,29.36,East,90,6.6,20.7,42,0.00,CLR,OVC,0.00,WeatherDisplay:10.37,2013-01-09 00:00:00,
2013-01-09 13:05:00,82.0,56.7,29.36,NNE,22,6.2,16.1,42,0.00,CLR,OVC,0.00,WeatherDisplay:10.37,2013-01-09 00:05:00,
2013-01-09 13:10:00,82.2,56.8,29.36,ESE,112,11.4,12.7,42,0.00,CLR,OVC,0.00,WeatherDisplay:10.37,2013-01-09 00:10:00,
2013-01-09 13:15:00,82.8,56.7,29.34,ENE,71,14.0,22.0,41,0.00,CLR,OVC,0.00,WeatherDisplay:10.37,2013-01-09 00:15:00,
2013-01-09 13:20:00,83.3,56.5,29.35,ENE,60,13.0,25.0,40,0.00,CLR,OVC,0.00,WeatherDisplay:10.37,2013-01-09 00:20:00,
2013-01-09 13:25:00,83.1,56.3,29.35,ENE,68,14.5,21.9,40,0.00,CLR,OVC,0.00,WeatherDisplay:10.37,2013-01-09 00:25:00,
2013-01-09 13:30:00,83.5,57.3,29.35,ENE,68,13.2,18.4,41,0.00,CLR,OVC,0.00,WeatherDisplay:10.37,2013-01-09 00:30:00,
2013-01-09 13:35:00,83.7,56.8,29.35,NE,45,14.2,21.9,40,0.00,CLR,OVC,0.00,WeatherDisplay:10.37,2013-01-09 00:35:00,
2013-01-09 13:40:00,84.2,57.3,29.35,NE,45,11.9,19.6,40,0.00,CLR,OVC,0.00,WeatherDisplay:10.37,2013-01-09 00:40:00,
2013-01-09 13:45:00,84.6,56.9,29.35,ENE,68,15.0,18.4,39,0.00,CLR,OVC,0.00,WeatherDisplay:10.37,2013-01-09 00:45:00,
2013-01-09 13:50:00,84.0,56.4,29.35,ENE,68,13.3,20.7,39,0.00,CLR,OVC,0.00,WeatherDisplay:10.37,2013-01-09 00:50:00,
2013-01-09 13:55:00,83.3,56.5,29.34,East,90,14.2,18.4,40,0.00,CLR,OVC,0.00,WeatherDisplay:10.37,2013-01-09 00:55:00,
2013-01-09 14:00:00,82.9,55.4,29.34,ENE,68,9.7,18.4,39,0.00,CLR,OVC,0.00,WeatherDisplay:10.37,2013-01-09 01:00:00,
2013-01-09 14:05:00,82.8,56.0,29.34,ENE,68,11.0,17.3,40,0.00,CLR,OVC,0.00,WeatherDisplay:10.37,2013-01-09 01:05:00,
2013-01-09 14:10:00,82.6,55.8,29.34,NE,45,12.7,20.7,40,0.00,CLR,OVC,0.00,WeatherDisplay:10.37,2013-01-09 01:10:00,
2013-01-09 14:15:00,82.6,55.8,29.33,ENE,68,11.4,19.6,40,0.00,CLR,OVC,0.00,WeatherDisplay:10.37,2013-01-09 01:15:00,
2013-01-09 14:20:00,82.8,56.7,29.33,ENE,68,14.3,21.9,41,0.00,CLR,OVC,0.00,WeatherDisplay:10.37,2013-01-09 01:20:00,
2013-01-09 14:25:00,83.1,57.0,29.34,ENE,68,11.7,12.7,41,0.00,CLR,OVC,0.00,WeatherDisplay:10.37,2013-01-09 01:25:00,
2013-01-09 14:30:00,83.5,57.3,29.33,SE,135,11.5,20.7,41,0.00,CLR,OVC,0.00,WeatherDisplay:10.37,2013-01-09 01:30:00,
2013-01-09 14:35:00,83.1,57.0,29.34,ESE,112,11.4,13.8,41,0.00,CLR,OVC,0.00,WeatherDisplay:10.37,2013-01-09 01:35:00,
2013-01-09 14:40:00,82.9,56.8,29.33,SE,135,10.8,12.7,41,0.00,CLR,OVC,0.00,WeatherDisplay:10.37,2013-01-09 01:40:00,
2013-01-09 14:45:00,82.2,56.8,29.34,ENE,68,8.7,17.3,42,0.00,CLR,OVC,0.00,WeatherDisplay:10.37,2013-01-09 01:45:00,
2013-01-09 14:50:00,82.2,56.8,29.33,SE,135,8.7,15.0,42,0.00,CLR,OVC,0.00,WeatherDisplay:10.37,2013-01-09 01:50:00,
2013-01-09 14:55:00,82.2,57.5,29.33,ENE,68,10.7,19.6,43,0.00,CLR,OVC,0.00,WeatherDisplay:10.37,2013-01-09 01:55:00,
2013-01-09 15:00:00,82.2,56.8,29.34,NE,45,6.5,12.7,42,0.00,CLR,OVC,0.00,WeatherDisplay:10.37,2013-01-09 02:00:00,
2013-01-09 15:05:00,82.4,57.7,29.34,ENE,68,5.4,11.5,43,0.00,CLR,OVC,0.00,WeatherDisplay:10.37,2013-01-09 02:05:00,
2013-01-09 15:10:00,82.6,57.8,29.34,ENE,68,6.8,9.2,43,0.00,CLR,OVC,0.00,WeatherDisplay:10.37,2013-01-09 02:10:00,
2013-01-09 15:15:00,82.8,58.0,29.34,ESE,112,10.1,13.8,43,0.00,CLR,OVC,0.00,WeatherDisplay:10.37,2013-01-09 02:15:00,
2013-01-09 15:20:00,82.9,58.1,29.33,East,90,7.7,16.1,43,0.00,CLR,OVC,0.00,WeatherDisplay:10.37,2013-01-09 02:20:00,
2013-01-09 15:25:00,82.9,57.5,29.33,SE,135,7.3,9.2,42,0.00,CLR,OVC,0.00,WeatherDisplay:10.37,2013-01-09 02:25:00,
2013-01-09 15:30:00,82.8,57.3,29.33,East,90,10.3,12.7,42,0.00,CLR,OVC,0.00,WeatherDisplay:10.37,2013-01-09 02:30:00,
2013-01-09 15:35:00,82.9,56.8,29.33,NNE,22,5.3,10.4,41,0.00,CLR,OVC,0.00,WeatherDisplay:10.37,2013-01-09 02:35:00,
2013-01-09 15:40:00,83.1,57.0,29.33,East,90,4.2,5.8,41,0.00,CLR,OVC,0.00,WeatherDisplay:10.37,2013-01-09 02:40:00,
2013-01-09 15:45:00,83.5,57.3,29.33,NNE,22,4.1,5.8,41,0.00,CLR,OVC,0.00,WeatherDisplay:10.37,2013-01-09 02:45:00,
2013-01-09 15:50:00,83.8,56.9,29.33,NE,45,1.2,3.5,40,0.00,CLR,OVC,0.00,WeatherDisplay:10.37,2013-01-09 02:50:00,
2013-01-09 15:55:00,84.0,57.1,29.33,ENE,68,4.3,7.6,40,0.00,CLR,OVC,0.00,WeatherDisplay:10.37,2013-01-09 02:55:00,
2013-01-09 16:00:00,84.6,56.9,29.31,East,90,2.4,4.6,39,0.00,CLR,OVC,0.00,WeatherDisplay:10.37,2013-01-09 03:00:00,
2013-01-09 16:05:00,84.7,57.0,29.32,ENE,68,5.5,8.9,39,0.00,CLR,OVC,0.00,WeatherDisplay:10.37,2013-01-09 03:05:00,
2013-01-09 16:10:00,84.7,57.0,29.32,ENE,68,3.7,6.9,39,0.00,CLR,OVC,0.00,WeatherDisplay:10.37,2013-01-09 03:10:00,
2013-01-09 16:15:00,84.7,56.3,29.32,North,0,7.2,10.4,38,0.00,CLR,OVC,0.00,WeatherDisplay:10.37,2013-01-09 03:15:00,
2013-01-09 16:20:00,84.9,57.2,29.32,ENE,68,2.9,6.3,39,0.00,CLR,OVC,0.00,WeatherDisplay:10.37,2013-01-09 03:20:00,
2013-01-09 16:25:00,85.1,55.9,29.32,NNE,22,3.6,5.8,37,0.00,CLR,OVC,0.00,WeatherDisplay:10.37,2013-01-09 03:25:00,
2013-01-09 16:30:00,85.3,56.1,29.32,NW,315,6.9,16.1,37,0.00,CLR,OVC,0.00,WeatherDisplay:10.37,2013-01-09 03:30:00,
2013-01-09 16:35:00,85.3,55.3,29.32,NNW,338,7.2,16.1,36,0.00,CLR,OVC,0.00,WeatherDisplay:10.37,2013-01-09 03:35:00,
2013-01-09 16:40:00,85.3,55.3,29.31,ENE,68,9.6,17.3,36,0.00,CLR,OVC,0.00,WeatherDisplay:10.37,2013-01-09 03:40:00,
2013-01-09 16:45:00,85.3,54.5,29.31,North,0,9.5,12.7,35,0.00,CLR,OVC,0.00,WeatherDisplay:10.37,2013-01-09 03:45:00,
2013-01-09 16:50:00,85.3,54.5,29.31,NW,315,9.7,16.1,35,0.00,CLR,OVC,0.00,WeatherDisplay:10.37,2013-01-09 03:50:00,
2013-01-09 16:55:00,85.5,53.9,29.31,North,0,11.1,20.7,34,0.00,CLR,OVC,0.00,WeatherDisplay:10.37,2013-01-09 03:55:00,
2013-01-09 17:00:00,85.3,53.7,29.30,North,0,9.2,16.1,34,0.00,CLR,OVC,0.00,WeatherDisplay:10.37,2013-01-09 04:00:00,
2013-01-09 17:05:00,85.3,53.7,29.29,NNE,22,14.0,20.7,34,0.00,CLR,OVC,0.00,WeatherDisplay:10.37,2013-01-09 04:05:00,
2013-01-09 17:10:00,85.3,53.7,29.29,NW,315,11.4,12.7,34,0.00,CLR,OVC,0.00,WeatherDisplay:10.37,2013-01-09 04:10:00,
2013-01-09 17:15:00,85.1,52.8,29.30,NNW,338,7.0,13.8,33,0.00,CLR,OVC,0.00,WeatherDisplay:10.37,2013-01-09 04:15:00,
2013-01-09 17:20:00,85.3,52.9,29.30,West,270,10.1,15.0,33,0.00,CLR,OVC,0.00,WeatherDisplay:10.37,2013-01-09 04:20:00,
2013-01-09 17:25:00,85.3,52.9,29.30,NW,315,9.0,14.7,33,0.00,CLR,OVC,0.00,WeatherDisplay:10.37,2013-01-09 04:25:00,
2013-01-09 17:30:00,85.8,53.4,29.30,NW,315,4.3,11.5,33,0.00,CLR,OVC,0.00,WeatherDisplay:10.37,2013-01-09 04:30:00,
2013-01-09 17:35:00,86.5,53.2,29.31,NNW,338,10.4,16.8,32,0.00,CLR,OVC,0.00,WeatherDisplay:10.37,2013-01-09 04:35:00,
2013-01-09 17:40:00,86.7,51.6,29.30,NW,315,18.8,25.3,30,0.00,CLR,OVC,0.00,WeatherDisplay:10.37,2013-01-09 04:40:00,
2013-01-09 17:45:00,86.7,51.6,29.31,NNW,338,8.9,21.9,30,0.00,CLR,OVC,0.00,WeatherDisplay:10.37,2013-01-09 04:45:00,
2013-01-09 17:50:00,86.9,51.7,29.31,North,0,8.9,17.3,30,0.00,CLR,OVC,0.00,WeatherDisplay:10.37,2013-01-09 04:50:00,
2013-01-09 17:55:00,87.1,51.9,29.31,WNW,292,13.3,23.0,30,0.00,CLR,OVC,0.00,WeatherDisplay:10.37,2013-01-09 04:55:00,
2013-01-09 18:00:00,86.7,50.7,29.31,North,0,11.3,19.6,29,0.00,CLR,OVC,0.00,WeatherDisplay:10.37,2013-01-09 05:00:00,
2013-01-09 18:02:00,86.7,51.6,29.30,NW,315,15.2,22.1,30,0.00,CLR,OVC,0.00,WeatherDisplay:10.37,2013-01-09 05:02:00,
2013-01-09 18:03:00,86.7,51.6,29.30,NNW,338,16.1,21.9,30,0.00,CLR,OVC,0.00,WeatherDisplay:10.37,2013-01-09 05:03:00,
2013-01-09 18:08:00,86.4,51.3,29.30,NW,315,12.5,19.6,30,0.00,CLR,OVC,0.00,WeatherDisplay:10.37,2013-01-09 05:08:00,
2013-01-09 18:13:00,86.2,51.1,29.30,WNW,292,8.8,17.3,30,0.00,CLR,OVC,0.00,WeatherDisplay:10.37,2013-01-09 05:13:00,
2013-01-09 18:18:00,86.0,51.0,29.30,NNW,338,14.1,18.4,30,0.00,CLR,OVC,0.00,WeatherDisplay:10.37,2013-01-09 05:18:00,
2013-01-09 18:23:00,85.8,50.8,29.31,NW,315,14.7,20.7,30,0.00,CLR,OVC,0.00,WeatherDisplay:10.37,2013-01-09 05:23:00,
2013-01-09 18:28:00,85.6,50.6,29.31,North,0,14.1,24.2,30,0.00,CLR,OVC,0.00,WeatherDisplay:10.37,2013-01-09 05:28:00,
2013-01-09 18:33:00,85.3,51.2,29.31,NW,315,9.9,12.7,31,0.00,CLR,OVC,0.00,WeatherDisplay:10.37,2013-01-09 05:33:00,
2013-01-09 18:38:00,85.3,52.1,29.31,NW,315,17.8,20.7,32,0.00,CLR,OVC,0.00,WeatherDisplay:10.37,2013-01-09 05:38:00,
2013-01-09 18:43:00,84.7,49.9,29.32,WNW,292,13.3,21.9,30,0.00,CLR,OVC,0.00,WeatherDisplay:10.37,2013-01-09 05:43:00,
2013-01-09 18:48:00,84.4,51.3,29.32,WNW,292,13.0,19.6,32,0.00,CLR,OVC,0.00,WeatherDisplay:10.37,2013-01-09 05:48:00,
2013-01-09 18:53:00,84.0,50.1,29.32,NNE,22,12.7,19.6,31,0.00,CLR,OVC,0.00,WeatherDisplay:10.37,2013-01-09 05:53:00,
2013-01-09 18:58:00,83.5,49.7,29.32,NW,315,10.6,17.3,31,0.00,CLR,OVC,0.00,WeatherDisplay:10.37,2013-01-09 05:58:00,
2013-01-09 19:03:00,83.1,49.3,29.32,NW,315,11.1,16.1,31,0.00,CLR,OVC,0.00,WeatherDisplay:10.37,2013-01-09 06:03:00,
2013-01-09 19:08:00,82.9,50.0,29.33,NW,315,15.6,16.1,32,0.00,CLR,OVC,0.00,WeatherDisplay:10.37,2013-01-09 06:08:00,
2013-01-09 19:13:00,82.4,49.6,29.33,NW,315,10.4,16.1,32,0.00,CLR,OVC,0.00,WeatherDisplay:10.37,2013-01-09 06:13:00,
2013-01-09 19:18:00,82.0,50.1,29.33,NNW,338,14.8,21.9,33,0.00,CLR,OVC,0.00,WeatherDisplay:10.37,2013-01-09 06:18:00,
2013-01-09 19:23:00,81.9,49.9,29.33,NNW,338,7.0,13.8,33,0.00,CLR,OVC,0.00,WeatherDisplay:10.37,2013-01-09 06:23:00,
2013-01-09 19:28:00,81.9,49.9,29.34,North,0,12.1,20.7,33,0.00,CLR,OVC,0.00,WeatherDisplay:10.37,2013-01-09 06:28:00,
2013-01-09 19:33:00,82.0,50.9,29.34,NW,315,6.8,10.4,34,0.00,CLR,OVC,0.00,WeatherDisplay:10.37,2013-01-09 06:33:00,
2013-01-09 19:38:00,81.7,49.8,29.35,NNW,338,6.9,13.9,33,0.00,CLR,OVC,0.00,WeatherDisplay:10.37,2013-01-09 06:38:00,
2013-01-09 19:43:00,81.7,50.6,29.35,NW,315,4.2,8.1,34,0.00,CLR,OVC,0.00,WeatherDisplay:10.37,2013-01-09 06:43:00,
2013-01-09 19:48:00,81.3,49.5,29.35,West,270,5.6,11.5,33,0.00,CLR,OVC,0.00,WeatherDisplay:10.37,2013-01-09 06:48:00,
2013-01-09 19:53:00,81.0,49.1,29.35,North,0,9.2,16.1,33,0.00,CLR,OVC,0.00,WeatherDisplay:10.37,2013-01-09 06:53:00,
2013-01-09 19:58:00,81.0,49.9,29.35,North,0,1.9,5.8,34,0.00,CLR,OVC,0.00,WeatherDisplay:10.37,2013-01-09 06:58:00,
2013-01-09 20:03:00,81.3,50.3,29.35,NNE,22,3.3,4.7,34,0.00,CLR,OVC,0.00,WeatherDisplay:10.37,2013-01-09 07:03:00,
2013-01-09 20:08:00,81.5,50.4,29.35,NE,45,1.9,5.6,34,0.00,CLR,OVC,0.00,WeatherDisplay:10.37,2013-01-09 07:08:00,
2013-01-09 20:13:00,81.1,50.9,29.35,NNE,22,3.6,8.1,35,0.00,CLR,OVC,0.00,WeatherDisplay:10.37,2013-01-09 07:13:00,
2013-01-09 20:18:00,80.6,50.4,29.34,NNE,22,2.8,15.4,35,0.00,CLR,OVC,0.00,WeatherDisplay:10.37,2013-01-09 07:18:00,
2013-01-09 20:23:00,80.2,50.1,29.34,NNW,338,5.6,10.4,35,0.00,CLR,OVC,0.00,WeatherDisplay:10.37,2013-01-09 07:23:00,
2013-01-09 20:28:00,79.9,49.8,29.34,ENE,68,8.6,12.7,35,0.00,CLR,OVC,0.00,WeatherDisplay:10.37,2013-01-09 07:28:00,
2013-01-09 20:33:00,79.3,50.1,29.33,East,90,4.3,7.6,36,0.00,CLR,OVC,0.00,WeatherDisplay:10.37,2013-01-09 07:33:00,
2013-01-09 20:38:00,79.0,49.7,29.33,NE,45,0.4,3.5,36,0.00,CLR,OVC,0.00,WeatherDisplay:10.37,2013-01-09 07:38:00,
2013-01-09 20:43:00,78.6,50.2,29.33,ENE,68,3.8,3.8,37,0.00,CLR,OVC,0.00,WeatherDisplay:10.37,2013-01-09 07:43:00,
2013-01-09 20:48:00,78.3,49.8,29.33,East,90,2.9,5.8,37,0.00,CLR,OVC,0.00,WeatherDisplay:10.37,2013-01-09 07:48:00,
2013-01-09 20:53:00,77.9,50.2,29.33,ENE,68,4.0,5.8,38,0.00,CLR,OVC,0.00,WeatherDisplay:10.37,2013-01-09 07:53:00,
2013-01-09 20:58:00,77.5,49.9,29.33,NE,45,5.2,8.3,38,0.00,CLR,OVC,0.00,WeatherDisplay:10.37,2013-01-09 07:58:00,
2013-01-09 21:03:00,76.8,49.3,29.34,NNE,22,11.5,16.1,38,0.00,CLR,OVC,0.00,WeatherDisplay:10.37,2013-01-09 08:03:00,
2013-01-09 21:08:00,76.5,49.0,29.33,ENE,68,3.8,5.8,38,0.00,CLR,OVC,0.00,WeatherDisplay:10.37,2013-01-09 08:08:00,
2013-01-09 21:13:00,76.1,49.3,29.33,East,90,4.4,6.9,39,0.00,CLR,OVC,0.00,WeatherDisplay:10.37,2013-01-09 08:13:00,
2013-01-09 21:18:00,75.7,49.0,29.34,East,90,3.6,9.2,39,0.00,CLR,OVC,0.00,WeatherDisplay:10.37,2013-01-09 08:18:00,
2013-01-09 21:23:00,75.4,49.4,29.33,NNE,22,5.3,8.1,40,0.00,CLR,OVC,0.00,WeatherDisplay:10.37,2013-01-09 08:23:00,
2013-01-09 21:28:00,75.0,49.1,29.32,ESE,112,5.0,6.9,40,0.00,CLR,OVC,0.00,WeatherDisplay:10.37,2013-01-09 08:28:00,
2013-01-09 21:33:00,74.8,48.9,29.33,NE,45,2.5,4.6,40,0.00,CLR,OVC,0.00,WeatherDisplay:10.37,2013-01-09 08:33:00,
2013-01-09 21:38:00,74.5,49.2,29.32,ENE,68,4.3,5.8,41,0.00,CLR,OVC,0.00,WeatherDisplay:10.37,2013-01-09 08:38:00,
2013-01-09 21:43:00,74.3,49.1,29.32,ENE,68,3.3,6.9,41,0.00,CLR,OVC,0.00,WeatherDisplay:10.37,2013-01-09 08:43:00,
2013-01-09 21:48:00,74.1,48.9,29.32,ENE,68,2.4,9.2,41,0.00,CLR,OVC,0.00,WeatherDisplay:10.37,2013-01-09 08:48:00,
2013-01-09 21:53:00,73.8,48.6,29.32,NE,45,3.5,6.9,41,0.00,CLR,OVC,0.00,WeatherDisplay:10.37,2013-01-09 08:53:00,
2013-01-09 21:58:00,73.6,49.1,29.31,ENE,68,2.0,3.5,42,0.00,CLR,OVC,0.00,WeatherDisplay:10.37,2013-01-09 08:58:00,
2013-01-09 22:03:00,73.2,48.7,29.31,NE,45,1.6,5.8,42,0.00,CLR,OVC,0.00,WeatherDisplay:10.37,2013-01-09 09:03:00,
2013-01-09 22:08:00,73.0,48.6,29.31,NE,45,3.0,8.1,42,0.00,CLR,OVC,0.00,WeatherDisplay:10.37,2013-01-09 09:08:00,
2013-01-09 22:13:00,72.7,48.3,29.31,North,0,10.5,18.4,42,0.00,CLR,OVC,0.00,WeatherDisplay:10.37,2013-01-09 09:13:00,
2013-01-09 22:18:00,72.3,47.9,29.31,NE,45,5.4,13.8,42,0.00,CLR,OVC,0.00,WeatherDisplay:10.37,2013-01-09 09:18:00,
2013-01-09 22:23:00,72.1,47.8,29.31,NNE,22,4.6,8.1,42,0.00,CLR,OVC,0.00,WeatherDisplay:10.37,2013-01-09 09:23:00,
2013-01-09 22:28:00,72.1,47.8,29.31,North,0,7.0,13.8,42,0.00,CLR,OVC,0.00,WeatherDisplay:10.37,2013-01-09 09:28:00,
2013-01-09 22:33:00,72.0,48.2,29.31,NNE,22,5.1,10.4,43,0.00,CLR,OVC,0.00,WeatherDisplay:10.37,2013-01-09 09:33:00,
2013-01-09 22:38:00,71.8,48.1,29.31,NE,45,6.1,9.2,43,0.00,CLR,OVC,0.00,WeatherDisplay:10.37,2013-01-09 09:38:00,
2013-01-09 22:43:00,71.8,48.1,29.31,NE,45,11.4,19.6,43,0.00,CLR,OVC,0.00,WeatherDisplay:10.37,2013-01-09 09:43:00,
2013-01-09 22:48:00,71.4,47.7,29.31,NNE,22,5.5,6.9,43,0.00,CLR,OVC,0.00,WeatherDisplay:10.37,2013-01-09 09:48:00,
2013-01-09 22:53:00,71.4,48.4,29.31,NE,45,10.9,13.8,44,0.00,CLR,OVC,0.00,WeatherDisplay:10.37,2013-01-09 09:53:00,
2013-01-09 22:58:00,71.4,48.4,29.30,NE,45,8.3,18.4,44,0.00,CLR,OVC,0.00,WeatherDisplay:10.37,2013-01-09 09:58:00,
2013-01-09 23:03:00,71.4,48.4,29.30,NNE,22,5.2,11.6,44,0.00,CLR,OVC,0.00,WeatherDisplay:10.37,2013-01-09 10:03:00,
2013-01-09 23:08:00,71.4,49.0,29.30,NNE,22,7.7,12.7,45,0.00,CLR,OVC,0.00,WeatherDisplay:10.37,2013-01-09 10:08:00,
2013-01-09 23:13:00,71.4,49.6,29.29,NNW,338,4.6,20.7,46,0.00,CLR,OVC,0.00,WeatherDisplay:10.37,2013-01-09 10:13:00,
2013-01-09 23:18:00,71.4,49.6,29.29,NE,45,5.5,18.4,46,0.00,CLR,OVC,0.00,WeatherDisplay:10.37,2013-01-09 10:18:00,
2013-01-09 23:23:00,71.2,49.4,29.29,North,0,6.0,8.1,46,0.00,CLR,OVC,0.00,WeatherDisplay:10.37,2013-01-09 10:23:00,
2013-01-09 23:28:00,71.2,49.4,29.30,NNE,22,2.2,13.2,46,0.00,CLR,OVC,0.00,WeatherDisplay:10.37,2013-01-09 10:28:00,
2013-01-09 23:33:00,71.2,50.0,29.30,NE,45,11.3,18.4,47,0.00,CLR,OVC,0.00,WeatherDisplay:10.37,2013-01-09 10:33:00,
2013-01-09 23:38:00,71.2,50.0,29.30,NE,45,3.4,3.5,47,0.00,CLR,OVC,0.00,WeatherDisplay:10.37,2013-01-09 10:38:00,
2013-01-09 23:43:00,71.2,50.0,29.29,NW,315,6.6,13.4,47,0.00,CLR,OVC,0.00,WeatherDisplay:10.37,2013-01-09 10:43:00,
2013-01-09 23:48:00,71.2,50.0,29.30,NE,45,10.8,23.0,47,0.00,CLR,OVC,0.00,WeatherDisplay:10.37,2013-01-09 10:48:00,
2013-01-09 23:53:00,71.2,50.0,29.30,NNE,22,9.4,16.1,47,0.00,CLR,OVC,0.00,WeatherDisplay:10.37,2013-01-09 10:53:00,
2013-01-09 23:58:00,71.2,50.0,29.30,NNE,22,8.4,11.5,47,0.00,CLR,OVC,0.00,WeatherDisplay:10.37,2013-01-09 10:58:00,